Orbital elements:
2011 UR402
Epoch 2011 Aug. 27.0 TT = JDT 2455800.5 MPC
M 348.10655 (2000.0) P Q
n 0.01208932 Peri. 293.76325 -0.85362486 -0.44091808
a 18.8018903 Node 221.62472 +0.47677697 -0.87581029
e 0.7803469 Incl. 24.67811 -0.20978159 -0.19633537
P 81.53 H 12.3 G 0.15 U 4